Location: ??????
(56.0120°N, 39.1740°E)
Time: 06:34:03
(UTC+00:00)

Cosmos 1680 Rocket - Pass Details

Date: 14 April 2026
Orbit: 756 x 776 km, 74.1° (Epoch: 13 May)

Event Time Altitude Azimuth Distance (km) Brightness Sun altitude
Rises 17:17:48 0° 329° (NNW) 3,237 7.9 -7.2°
Reaches altitude 10° 17:20:14 10° 325° (NW) 2,305 7.2 -7.5°
Maximum altitude 17:25:17 53° 250° (WSW) 934 4.3 -8.1°
Drops below altitude 10° 17:30:18 10° 175° (S) 2,281 5.6 -8.7°
Sets 17:32:41 0° 171° (S) 3,202 6.3 -9.0°
